When you browse on this site, cookies collect data to enhance your experience and personalize the content and advertising you see.
Visit our Privacy Policy to learn more. By continuing to use the site, you agree to this use of cookies and data.
  • în România
  • Lista ţărilor
  • Pe 7 zile
  • Temperatura apei
  • Meteo pe hartă
  • Widget-uri
  • user-avatar
    Intrare

    Meteo pe oră la Tiba

    Astăzi, 25 Ianuarie, Sâmbătă

    Timp Temperatura Precipitaţii Vânt Presiune Umiditate
    00:00 +9°C° 0 mm 5 m/s 767 mmHg 59%
    01:00 +8°C° 0 mm 4 m/s 768 mmHg 54%
    02:00 +8°C° 0 mm 4 m/s 768 mmHg 49%
    03:00 +7°C° 0 mm 4 m/s 768 mmHg 44%
    04:00 +7°C° 0 mm 4 m/s 768 mmHg 43%
    05:00 +7°C° 0 mm 4 m/s 769 mmHg 43%
    06:00 +7°C° 0 mm 3 m/s 769 mmHg 43%
    07:00 +7°C° 0 mm 3 m/s 769 mmHg 42%
    08:00 +7°C° 0 mm 3 m/s 770 mmHg 42%
    09:00 +7°C° 0 mm 3 m/s 770 mmHg 42%
    10:00 +8°C° 0 mm 3 m/s 770 mmHg 41%
    11:00 +8°C° 0 mm 3 m/s 770 mmHg 41%
    12:00 +8°C° 0 mm 3 m/s 770 mmHg 40%
    13:00 +8°C° 0 mm 3 m/s 770 mmHg 41%
    14:00 +8°C° 0 mm 3 m/s 769 mmHg 42%
    15:00 +9°C° 0 mm 3 m/s 769 mmHg 43%
    16:00 +9°C° 0 mm 3 m/s 769 mmHg 45%
    17:00 +8°C° 0 mm 3 m/s 770 mmHg 47%
    18:00 +8°C° 0 mm 2 m/s 770 mmHg 49%
    19:00 +8°C° 0 mm 3 m/s 770 mmHg 49%
    20:00 +8°C° 0 mm 3 m/s 770 mmHg 49%
    21:00 +8°C° 0 mm 3 m/s 770 mmHg 49%
    22:00 +8°C° 0 mm 3 m/s 770 mmHg 49%
    23:00 +8°C° 0 mm 3 m/s 770 mmHg 49%

    Mâine, 26 Ianuarie, Duminică

    Timp Temperatura Precipitaţii Vânt Presiune Umiditate
    00:00 +8°C° 0 mm 3 m/s 770 mmHg 48%
    01:00 +8°C° 0 mm 3 m/s 769 mmHg 48%
    02:00 +8°C° 0 mm 3 m/s 769 mmHg 49%
    03:00 +8°C° 0 mm 3 m/s 769 mmHg 49%
    04:00 +7°C° 0.1 mm 3 m/s 769 mmHg 54%
    05:00 +7°C° 0.1 mm 3 m/s 768 mmHg 59%
    06:00 +6°C° 0.1 mm 4 m/s 768 mmHg 64%
    07:00 +7°C° 0.9 mm 3 m/s 768 mmHg 67%
    08:00 +5°C° 0.9 mm 3 m/s 768 mmHg 70%
    09:00 +5°C° 0.9 mm 3 m/s 768 mmHg 73%
    10:00 +5°C° 1.2 mm 3 m/s 768 mmHg 77%
    11:00 +5°C° 1.2 mm 3 m/s 768 mmHg 80%
    12:00 +5°C° 1.2 mm 3 m/s 767 mmHg 84%
    13:00 +5°C° 1 mm 3 m/s 767 mmHg 84%
    14:00 +5°C° 1 mm 3 m/s 767 mmHg 84%
    15:00 +5°C° 1 mm 4 m/s 766 mmHg 84%
    16:00 +5°C° 0.2 mm 3 m/s 767 mmHg 82%
    17:00 +5°C° 0.2 mm 3 m/s 767 mmHg 80%
    18:00 +5°C° 0.2 mm 3 m/s 767 mmHg 78%
    19:00 +7°C° 0 mm 3 m/s 767 mmHg 76%
    20:00 +7°C° 0 mm 3 m/s 768 mmHg 73%
    21:00 +7°C° 0 mm 3 m/s 768 mmHg 70%
    22:00 +7°C° 0 mm 3 m/s 768 mmHg 68%
    23:00 +7°C° 0 mm 3 m/s 768 mmHg 65%

    Poimâine, 27 Ianuarie, Luni

    Timp Temperatura Precipitaţii Vânt Presiune Umiditate
    00:00 +7°C° 0 mm 3 m/s 768 mmHg 63%
    01:00 +6°C° 0 mm 4 m/s 768 mmHg 62%
    02:00 +6°C° 0 mm 4 m/s 768 mmHg 61%
    03:00 +5°C° 0 mm 4 m/s 767 mmHg 61%
    04:00 +6°C° 0 mm 4 m/s 768 mmHg 61%
    05:00 +6°C° 0 mm 4 m/s 768 mmHg 61%
    06:00 +6°C° 0 mm 4 m/s 768 mmHg 61%
    07:00 +6°C° 0 mm 4 m/s 768 mmHg 59%
    08:00 +6°C° 0 mm 4 m/s 768 mmHg 57%
    09:00 +7°C° 0 mm 4 m/s 768 mmHg 55%
    10:00 +7°C° 0 mm 4 m/s 768 mmHg 57%
    11:00 +8°C° 0 mm 5 m/s 767 mmHg 58%
    12:00 +8°C° 0 mm 5 m/s 767 mmHg 59%
    13:00 +8°C° 0.2 mm 5 m/s 767 mmHg 62%
    14:00 +7°C° 0.2 mm 5 m/s 766 mmHg 65%
    15:00 +7°C° 0.2 mm 6 m/s 766 mmHg 68%
    16:00 +7°C° 0.8 mm 6 m/s 766 mmHg 72%
    17:00 +5°C° 0.8 mm 6 m/s 766 mmHg 75%
    18:00 +4°C° 0.8 mm 6 m/s 766 mmHg 78%
    19:00 +4°C° 0.9 mm 6 m/s 766 mmHg 78%
    20:00 +4°C° 0.9 mm 6 m/s 766 mmHg 78%
    21:00 +4°C° 0.9 mm 7 m/s 766 mmHg 78%
    22:00 +4°C° 0.9 mm 7 m/s 766 mmHg 79%
    23:00 +4°C° 0.9 mm 6 m/s 765 mmHg 81%

    28 Ianuarie, Marţi

    Timp Temperatura Precipitaţii Vânt Presiune Umiditate
    00:00 +4°C° 0.9 mm 6 m/s 765 mmHg 83%
    01:00 +4°C° 1 mm 6 m/s 765 mmHg 83%
    02:00 +5°C° 1 mm 6 m/s 765 mmHg 84%
    03:00 +5°C° 1 mm 6 m/s 764 mmHg 84%
    04:00 +5°C° 1.9 mm 7 m/s 764 mmHg 85%
    05:00 +5°C° 1.9 mm 7 m/s 764 mmHg 85%
    06:00 +5°C° 1.9 mm 7 m/s 764 mmHg 86%
    07:00 +5°C° 1.3 mm 7 m/s 765 mmHg 86%
    08:00 +5°C° 1.3 mm 7 m/s 765 mmHg 86%
    09:00 +5°C° 1.3 mm 7 m/s 765 mmHg 86%
    10:00 +6°C° 0.9 mm 7 m/s 764 mmHg 84%
    11:00 +6°C° 0.9 mm 7 m/s 764 mmHg 83%
    12:00 +6°C° 0.9 mm 7 m/s 764 mmHg 82%
    13:00 +6°C° 0.8 mm 7 m/s 764 mmHg 82%
    14:00 +6°C° 0.8 mm 7 m/s 764 mmHg 83%
    15:00 +8°C° 0.8 mm 6 m/s 764 mmHg 84%
    16:00 +8°C° 0.5 mm 6 m/s 764 mmHg 82%
    17:00 +8°C° 0.5 mm 7 m/s 764 mmHg 80%
    18:00 +8°C° 0.5 mm 7 m/s 764 mmHg 79%
    19:00 +8°C° 0.1 mm 7 m/s 764 mmHg 78%
    20:00 +8°C° 0.1 mm 7 m/s 764 mmHg 78%
    21:00 +8°C° 0.1 mm 6 m/s 764 mmHg 78%
    22:00 +8°C° 0.2 mm 6 m/s 764 mmHg 77%
    23:00 +9°C° 0.2 mm 6 m/s 763 mmHg 76%

    29 Ianuarie, Miercuri

    Timp Temperatura Precipitaţii Vânt Presiune Umiditate
    00:00 +9°C° 0.2 mm 6 m/s 763 mmHg 76%
    01:00 +9°C° 0.5 mm 6 m/s 763 mmHg 76%
    02:00 +9°C° 0.5 mm 6 m/s 762 mmHg 76%
    03:00 +9°C° 0.5 mm 6 m/s 762 mmHg 77%
    04:00 +9°C° 0.8 mm 6 m/s 761 mmHg 78%
    05:00 +9°C° 0.8 mm 6 m/s 761 mmHg 78%
    06:00 +9°C° 0.8 mm 6 m/s 761 mmHg 79%
    07:00 +9°C° 1.9 mm 6 m/s 760 mmHg 81%
    08:00 +9°C° 1.9 mm 7 m/s 760 mmHg 83%
    09:00 +9°C° 1.9 mm 7 m/s 760 mmHg 85%
    10:00 +9°C° 2.9 mm 7 m/s 760 mmHg 86%
    11:00 +9°C° 2.9 mm 7 m/s 759 mmHg 88%
    12:00 +9°C° 2.9 mm 7 m/s 758 mmHg 89%
    13:00 +9°C° 2.6 mm 7 m/s 757 mmHg 88%
    14:00 +9°C° 2.6 mm 7 m/s 757 mmHg 87%
    15:00 +10°C° 2.6 mm 8 m/s 756 mmHg 86%
    16:00 +10°C° 2.9 mm 8 m/s 756 mmHg 86%
    17:00 +9°C° 2.9 mm 8 m/s 756 mmHg 87%
    18:00 +9°C° 2.9 mm 8 m/s 756 mmHg 88%
    19:00 +10°C° 1.3 mm 8 m/s 755 mmHg 87%
    20:00 +10°C° 1.3 mm 7 m/s 755 mmHg 85%
    21:00 +10°C° 1.3 mm 7 m/s 754 mmHg 84%
    22:00 +10°C° 0.7 mm 7 m/s 754 mmHg 83%
    23:00 +10°C° 0.7 mm 7 m/s 753 mmHg 81%

    30 Ianuarie, Joi

    Timp Temperatura Precipitaţii Vânt Presiune Umiditate
    00:00 +10°C° 0.7 mm 8 m/s 752 mmHg 80%
    01:00 +10°C° 0.5 mm 8 m/s 752 mmHg 80%
    02:00 +10°C° 0.5 mm 8 m/s 751 mmHg 80%
    03:00 +10°C° 0.5 mm 8 m/s 751 mmHg 80%
    04:00 +9°C° 0.9 mm 8 m/s 751 mmHg 79%
    05:00 +9°C° 0.9 mm 8 m/s 750 mmHg 78%
    06:00 +8°C° 0.9 mm 9 m/s 750 mmHg 77%
    07:00 +9°C° 0.1 mm 8 m/s 751 mmHg 74%
    08:00 +9°C° 0.1 mm 8 m/s 751 mmHg 72%
    09:00 +9°C° 0.1 mm 8 m/s 751 mmHg 70%
    10:00 +10°C° 0 mm 7 m/s 751 mmHg 67%
    11:00 +10°C° 0 mm 6 m/s 751 mmHg 65%
    12:00 +10°C° 0 mm 6 m/s 751 mmHg 62%
    13:00 +11°C° 0 mm 6 m/s 751 mmHg 60%
    14:00 +12°C° 0 mm 5 m/s 751 mmHg 58%
    15:00 +12°C° 0 mm 5 m/s 751 mmHg 57%
    16:00 +10°C° 0 mm 5 m/s 751 mmHg 60%
    17:00 +11°C° 0 mm 4 m/s 752 mmHg 63%
    18:00 +10°C° 0 mm 4 m/s 752 mmHg 67%
    19:00 +10°C° 0 mm 4 m/s 752 mmHg 68%
    20:00 +10°C° 0 mm 4 m/s 753 mmHg 69%
    21:00 +8°C° 0 mm 4 m/s 753 mmHg 70%
    22:00 +8°C° 0 mm 4 m/s 753 mmHg 70%
    23:00 +8°C° 0 mm 4 m/s 753 mmHg 71%
    Arată mai mult